User: anonymous   Login
Location: Dover
(39.1580°N, 75.5250°W)
Time: 01:14:39
(UTC-04:00)
Language:

Cosmos 1437 Rocket - Orbit

View from above orbital plane
View from above orbital plane
View from above satellite
View from above satellite

Ground track
Ground track

The orbit data is extracted from the following two-line orbital elements,

1 13771U 83003B   18146.59110586 +.00000594 +00000-0 +34373-4 0  9990
2 13771 081.1517 327.1882 0039923 311.2924 048.4866 15.10111829925611
Epoch (UTC): 26 May 2018 14:11:11
Eccentricity: 0.0039923
inclination: 81.1517°
perigee height: 508 km
apogee height: 563 km
right ascension of ascending node: 327.1882°
argument of perigee: 311.2924°
revolutions per day: 15.10111829
mean anomaly at epoch: 48.4866°
orbit number at epoch: 92561

The dashed part of the orbit path shows where the satellite is in the earth's shadow,  

DLR